Tracking 19638 objects as of 20-Apr-2019
HD Live streaming from Space Station
objects crossing your sky now

SL-6 R/B(2)

Track SL-6 R/B(2) now!


NORAD ID: 10089
Int'l Code: 1977-047D
Perigee: 2,959.1 km
Apogee: 37,641.5 km
Inclination: 66.8 °
Period: 722.5 minutes
Semi major axis: 26671 km
RCS: 4.9235 m2 (large)
Launch date: June 16, 1977
Source: Commonwealth of Independent States (former USSR) (CIS)
Launch site: PLESETSK MISSILE AND SPACE COMPLEX (PKMTR)

Note: This is a ROCKET BODY
aabbcc
Your satellite tracking list
Your tracking list is empty




NASA's NSSDC Master Catalog

Two Line Element Set (TLE):
1 10089U 77047D   19108.95360316 -.00000681  00000-0  00000+0 0  9990
2 10089  66.7662 287.5890 6501835 350.2111   1.4712  1.99313722208353
Source of the keplerian elements: AFSPC